Home > Weather > Prievidza > Past weeks

Flag for Slovakia Weather for the Past 2 Weeks in Prievidza, Slovakia

Now
46 °F

Cool.


Feels Like: N/A
Forecast: 38 / 47 °F
Wind: N/A

Location: Prievidza

Current Time: Feb 9, 2016 at 12:57:46 AM

Latest Report: Feb 9, 2016 at 12:00 AM


Visibility: 11 mi

Pressure: 29.83 "Hg

Humidity: 82%

Dew point: 40 °F

Location of PrievidzaLocation

Historic Weather in Prievidza — Graph

°F

Prievidza Temperature Yesterday

Maximum temperature yesterday: 45 °F (at 9:00 PM)
Minimum temperature yesterday: 42 °F (at 2:00 PM)
Average temperature yesterday: 43 °F

High & Low Weather Summary for the Past Weeks

 TemperatureHumidityPressure
High50 °F (Feb 2, 2:00 PM)98% (Jan 27, 7:00 AM)30.56 "Hg (Jan 27, 7:00 AM)
Low27 °F (Feb 5, 11:00 PM)44% (Jan 31, 1:00 PM)29.83 "Hg (Feb 8, 10:00 PM)
Average38 °F85%30.19 "Hg
* Reported Jan 24 10:00 PM — Feb 8 10:00 PM, Prievidza, Weather by CustomWeather, © 2016

Note: Actual official high and low records may vary slightly from our data, if they occured in-between our weather recording intervals... More about our weather records

Advertising

Prievidza Weather History for the Previous 24 Hours

 ConditionsComfort  
Time TempWeatherWind HumidityBarometerVisibility
10:00 PM
Mon, Feb 8
45 °FQuite cool.5 mph82%29.83 "Hg10 mi
9:00 PM45 °FOvercast.6 mph81%29.84 "Hg11 mi
8:00 PM45 °FOvercast.5 mph82%29.84 "Hg11 mi
7:00 PM44 °FOvercast.5 mph84%29.86 "Hg12 mi
6:00 PM43 °FOvercast.3 mph86%29.88 "Hg10 mi
5:00 PM43 °FOvercast.3 mph87%29.88 "Hg12 mi
4:00 PM42 °FOvercast.3 mph89%29.90 "Hg12 mi
3:00 PM42 °FOvercast.3 mph89%29.91 "Hg8 mi
2:00 PM42 °FQuite cool.5 mph92%29.93 "HgN/A
1:00 PM42 °FLight rain. Overcast.5 mph92%29.96 "Hg4 mi
12:00 PM42 °FLight rain. Overcast.N/A89%29.98 "Hg4 mi
11:00 AM43 °FLight rain. Overcast.N/A85%29.99 "Hg5 mi
10:00 AM44 °FLight rain. Overcast.1 mph78%29.99 "Hg6 mi
9:00 AM43 °FOvercast.3 mph73%29.99 "Hg12 mi
8:00 AM42 °FOvercast.1 mph76%30.00 "Hg12 mi
7:00 AM42 °FOvercast.N/A73%29.99 "Hg16 mi
6:00 AM43 °FQuite cool.N/A72%29.98 "Hg16 mi
5:00 AM43 °FQuite cool.3 mph72%29.97 "Hg19 mi
Weather by CustomWeather, © 2016

See weather overviewHow to use our weather pages